STARLINK-1642, 46154

Orbit data source: Space-Track

STARLINK-1642, 46154 is a payload satellite owned by SpaceX/Seattle (US) in LEO that was launched on Tue, 18 Aug 2020 UTC via an FALCON 9 launch vehicle from the Air Force Eastern Test Range (AFETR). Payload-class satellites include a variety of spacecraft equipped with specific instruments for various scientific and technological missions. These include communications satellites like Starlink; space stations such as the ISS; scientific satellites like the Hubble; Earth observation satellites from companies like Planet Labs, Umbra, and HawkEye 360; GPS; miniature CubeSats for education and research; and military/defense satellites.

Loading next visibility...
Identifier
46154, 2020-057AP
Orbit
LEO
Country
Flag of USUS
Related business
Manufacturer
SpaceX/Seattle
Mission
Partially operational Commercial Communications
Bus & Motor
STARLINK, Unknown motor
Mass
260 kg wet, ~248 kg dry
Launch date (UTC)
2020-08-18 (5 years ago)
Launch vehicle
FALCON 9
Launch site
Air Force Eastern Test Range (AFETR)
Object type
Payload
Rocket body
Debris
Shape & HBR
Box + 1 Pan, 4.4 m
Radar Cross Section
13.562 m², Large (>1 m²)

Expand to show TLE details & history
Last TLE update: 17 hours ago

TLE from 17 hours ago
0 STARLINK-1642
1 46154U 20057AP  25260.54266603  .00064589  00000-0  17576-2 0  9991
2 46154  53.0562 358.1291 0007464 310.7060  49.3293 15.36916280280191
Epoch: 2025-09-17T13:01Z
TLE epoch observation values (Epoch: 2025-09-17T13:01:26.345Z)
Latitude
-0.00003°
Longitude
166.0522°
Altitude
452.804 km
Speed
7.644 km/s
True Right ascension
23h 52m 30s
True Declination
0° 00' 00"
Sunlit
Object was in full shadow at epoch
Visualization orbit readout
Latitude
Unknown
Longitude
Unknown
Altitude
Unknown
Speed
Unknown
Apparent Right ascension
Unknown
Apparent Declination
Unknown
Sunlit
N/A
Visualization observer readout
Local Sidereal Time
23:06:22
Azimuth
Unknown
Elevation
Unknown
Doppler factor
Unknown
Orbital elements
Apogee altitude
460.609 km
Perigee altitude
450.408 km
Semi-major axis
6,833.646 km
Eccentricity
0.00075
Inclination
53.0562°
RAAN
358.1291°
Arg. of periapsis
310.706°
True anomaly
49.39421°
Mean anomaly
49.3293°
Eccentric anomaly
49.36175°
Mean motion
3.84206 °/min
Orbital period
93.7 mins
BSTAR
0.0017576
Loading maneuver chart data...
Computing Atmospheric mass density...
Loading historical data...
Loading historical data...
Loading historical data...
Loading historical data...
Loading historical data...
Loading historical data...
Loading historical data...

Documentation

Showing up to 5 results
|